Location: Newark
(44.3248°N, 23.7839°E)
Time: 05:03:02
(UTC+00:00)

CAS-6 - Pass Details

Date: 30 April 2024
Orbit: 607 x 628 km, 97.8° (Epoch: 24 May)

Event Time Altitude Azimuth Distance (km) Brightness Sun altitude
Exits shadow 21:47:40 15° 284° (WNW) 1,659 ? -30.0°
Drops below altitude 10° 21:49:25 10° 308° (NW) 1,981 ? -30.1°
Sets 21:52:21 0° 330° (NNW) 2,887 ? -30.2°
